Temp
-7 -7 -7 -7 -6 -6 -6 -6 -6 -5 -5 -5 -7 -7 -7 -8 -8 -7 -7 -8 -7 -7 -7 -6 -6 -6 -6 -5 -6 -6 -6 -6 -6
-7 -7 -8 -7 -7 -7 -6 -5 -6 -5 -5 -5 -6 -7 -7 -7 -7 -7 -7 -7 -7 -7 -6 -6 -6 -6 -6 -6 -6 -5 -5 -5 -6
-6 -8 -8 -8 -7 -7 -7 -6 -6 -6 -5 -6 -6 -6 -7 -7 -7 -7 -7 -7 -7 -7 -6 -6 -6 -6 -6 -6 -6 -6 -6 -6 -6
-6 -8 -7 -7 -7 -7 -7 -7 -6 -6 -6 -6 -7 -7 -7 -7 -7 -7 -7 -7 -7 -6 -6 -6 -6 -6 -6 -6 -6 -6 -6 -6 -6
-6 -8 -8 -7 -7 -8 -7 -8 -7 -7 -7 -7 -7 -7 -7 -7 -7 -7 -7 -7 -7 -7 -6 -6 -6 -6 -6 -6 -6 -6 -6 -6 -6
-7 -7 -7 -8 -7 -8 -8 -9 -8 -8 -8 -8 -8 -8 -8 -8 -8 -8 -8 -8 -8 -7 -7 -7 -7 -7 -6 -6 -7 -7 -6 -6 -6
-8 -8 -8 -8 -8 -8 -8 -8 -9 -8 -8 -8 -8 -8 -8 -8 -8 -9 -8 -8 -8 -8 -8 -8 -8 -8 -7 -7 -8 -7 -7 -7 -7
-8 -8 -8 -8 -8 -9 -9 -9 -9 -9 -9 -8 -8 -8 -8 -8 -8 -8 -8 -8 -8 -9 -9 -9 -9 -9 -9 -8 -8 -8 -8 -7 -7
-7 -8 -8 -9 -9 -9 -8 -8 -9 -9 -9 -9 -8 -8 -9 -8 -8 -9 -9 -9 -8 -9 -9 -9 -10 -9 -9 -9 -9 -8 -8 -8 -8
-8 -8 -8 -8 -7 -8 -8 -8 -8 -9 -9 -9 -9 -9 -9 -9 -9 -8 -8 -8 -9 -9 -9 -9 -9 -9 -9 -9 -8 -8 -8 -8 -7
-8 -8 -8 -8 -8 -8 -8 -8 -8 -9 -9 -9 -9 -9 -9 -9 -9 -9 -9 -9 -9 -8 -8 -8 -9 -9 -8 -8 -8 -8 -8 -8 -8
-9 -9 -9 -9 -9 -9 -8 -8 -9 -9 -9 -9 -8 -9 -9 -9 -9 -9 -9 -9 -8 -9 -9 -9 -8 -9 -9 -8 -8 -8 -8 -8 -8
-8 -9 -9 -9 -9 -9 -9 -9 -9 -9 -9 -9 -8 -6 -7 -9 -9 -9 -9 -9 -9 -9 -8 -8 -8 -8 -8 -8 -8 -9 -9 -8 -8
-8 -9 -8 -8 -9 -9 -9 -9 -9 -8 -7 -9 -9 -9 -5 -7 -9 -9 -9 -9 -10 -8 -9 -8 -8 -8 -8 -8 -8 -9 -9 -9 -9
-9 -9 -9 -9 -9 -8 -8 -9 -9 -9 -8 -8 -8 -7 -5 -7 -9 -9 -9 -9 -9 -9 -9 -8 -8 -8 -8 -8 -8 -9 -9 -9 -9
-8 -8 -8 -9 -9 -9 -9 -9 -9 -9 -9 -8 -8 -10 -9 -9 -9 -9 -10 -10 -9 -9 -8 -9 -9 -9 -9 -8 -8 -9 -9 -9 -9
-9 -9 -9 -9 -9 -9 -9 -9 -10 -10 -10 -9 -9 -8 -9 -9 -9 -10 -10 -10 -9 -9 -9 -9 -9 -9 -9 -9 -9 -9 -9 -9 -10
-9 -9 -10 -10 -10 -10 -10 -10 -10 -10 -9 -10 -9 -8 -9 -10 -10 -10 -10 -9 -9 -9 -10 -10 -10 -10 -10 -9 -9 -9 -9 -10 -10
-10 -10 -10 -11 -10 -10 -10 -10 -10 -9 -9 -10 -11 -9 -9 -10 -10 -10 -11 -10 -9 -10 -10 -10 -10 -10 -10 -10 -10 -10 -10 -11 -11
-11 -11 -10 -10 -10 -10 -10 -10 -10 -9 -9 -9 -10 -10 -9 -10 -10 -10 -10 -10 -11 -11 -11 -10 -10 -10 -10 -10 -10 -10 -11 -11 -11
Height
5917 5917 5915 5915 5916 5914 5911 5908 5905 5904 5902 5899 5899 5900 5901 5901 5902 5903 5903 5903 5902 5902 5902 5902 5901 5901 5901 5901 5900 5899 5898 5897 5897
5915 5915 5913 5914 5915 5914 5912 5909 5908 5906 5904 5901 5900 5899 5900 5901 5901 5901 5900 5901 5901 5900 5900 5900 5900 5899 5898 5898 5898 5897 5896 5896 5896
5912 5914 5912 5912 5912 5912 5910 5909 5908 5906 5903 5901 5900 5899 5900 5901 5901 5900 5900 5900 5899 5899 5899 5898 5898 5898 5898 5897 5896 5895 5893 5893 5893
5909 5911 5911 5911 5910 5910 5910 5910 5908 5906 5903 5901 5900 5899 5899 5899 5899 5899 5899 5898 5898 5897 5897 5896 5894 5894 5894 5894 5893 5893 5892 5891 5890
5907 5909 5912 5912 5910 5909 5909 5909 5907 5905 5902 5901 5900 5899 5898 5897 5896 5896 5895 5895 5895 5894 5893 5892 5891 5891 5890 5890 5890 5890 5889 5887 5887
5907 5910 5910 5912 5910 5908 5907 5907 5907 5906 5903 5901 5898 5896 5895 5894 5893 5893 5892 5891 5890 5889 5888 5887 5886 5886 5885 5885 5884 5883 5883 5882 5882
5905 5908 5909 5910 5907 5906 5906 5906 5906 5905 5903 5902 5900 5897 5895 5892 5891 5889 5888 5885 5883 5881 5880 5880 5880 5880 5879 5878 5879 5878 5878 5876 5875
5906 5906 5906 5907 5905 5904 5905 5904 5901 5900 5899 5898 5897 5895 5893 5891 5888 5887 5886 5883 5880 5877 5875 5875 5875 5874 5874 5872 5872 5870 5870 5869 5869
5901 5901 5901 5901 5901 5900 5900 5899 5895 5893 5894 5893 5892 5891 5888 5887 5885 5883 5882 5880 5878 5875 5873 5872 5871 5870 5870 5867 5866 5866 5864 5862 5862
5899 5898 5896 5895 5894 5891 5892 5894 5891 5888 5886 5887 5885 5883 5882 5880 5879 5878 5876 5875 5873 5872 5870 5869 5868 5867 5865 5862 5860 5859 5857 5856 5854
5893 5892 5889 5887 5887 5886 5883 5881 5880 5875 5871 5869 5870 5873 5873 5872 5870 5870 5869 5868 5865 5864 5864 5862 5860 5859 5858 5856 5855 5853 5850 5848 5846
5888 5884 5881 5878 5876 5874 5873 5871 5868 5864 5864 5857 5834 5838 5849 5859 5859 5859 5858 5856 5856 5856 5856 5856 5854 5851 5849 5847 5844 5843 5842 5840 5837
5883 5881 5879 5873 5867 5863 5861 5859 5851 5844 5843 5838 5842 5806 5817 5829 5842 5846 5847 5849 5849 5848 5848 5847 5845 5842 5839 5837 5836 5834 5833 5832 5829
5874 5872 5870 5865 5861 5857 5852 5849 5841 5825 5809 5831 5822 5803 5784 5791 5820 5829 5835 5835 5840 5839 5839 5837 5834 5833 5831 5827 5826 5825 5824 5824 5820
5862 5860 5856 5855 5847 5846 5843 5840 5835 5829 5816 5819 5817 5794 5760 5777 5806 5816 5822 5826 5831 5828 5827 5827 5825 5823 5823 5821 5818 5816 5815 5815 5813
5851 5848 5845 5841 5837 5833 5830 5828 5826 5817 5812 5808 5811 5802 5797 5801 5807 5811 5817 5819 5820 5818 5815 5815 5816 5815 5815 5813 5810 5808 5806 5805 5803
5838 5834 5832 5830 5829 5823 5820 5819 5816 5811 5806 5803 5809 5808 5802 5801 5802 5806 5808 5811 5811 5808 5805 5806 5807 5808 5807 5804 5801 5800 5799 5796 5794
5827 5825 5823 5820 5818 5815 5814 5812 5808 5803 5794 5795 5797 5798 5798 5797 5797 5798 5801 5803 5801 5800 5799 5799 5800 5799 5798 5795 5792 5791 5789 5786 5783
5819 5815 5815 5815 5813 5812 5809 5806 5802 5795 5789 5788 5789 5789 5789 5791 5789 5791 5793 5794 5794 5793 5793 5792 5790 5790 5787 5786 5784 5782 5780 5777 5775
5811 5809 5809 5809 5809 5805 5800 5798 5797 5790 5785 5780 5776 5780 5783 5782 5783 5784 5785 5786 5787 5786 5785 5783 5783 5780 5776 5773 5773 5772 5770 5767 5764
Wind_Speed
18 20 17 14 14 14 14 14 12 10 10 10 2 2 5 6 5 5 6 6 7 6 6 6 6 7 6 6 6 6 4 3 3
20 27 17 10 11 14 14 12 10 9 7 7 3 1 3 3 1 2 2 7 5 3 4 7 8 7 8 8 9 8 8 8 8
20 26 16 17 15 14 14 16 11 8 6 4 4 4 6 5 4 4 4 4 4 5 6 6 6 7 8 8 8 9 8 9 10
14 19 15 20 21 16 13 13 14 8 5 2 2 3 3 4 3 3 3 3 3 5 6 6 7 6 5 5 5 7 7 8 9
19 13 16 26 26 22 15 13 12 9 5 1 2 3 3 3 3 3 4 5 6 7 8 9 10 9 8 8 7 7 7 7 10
21 17 7 28 26 17 13 14 15 10 7 6 6 7 7 7 7 7 9 11 14 15 15 14 13 12 11 10 9 9 10 9 11
18 23 27 28 16 12 19 18 18 18 17 17 16 15 9 9 11 10 9 11 13 13 14 16 17 16 16 14 13 14 14 13 14
20 24 27 31 9 6 14 23 23 23 22 21 20 20 17 13 14 12 15 9 6 5 8 11 14 16 17 17 16 16 16 16 18
29 27 29 31 20 24 31 29 26 26 26 26 28 24 23 20 21 17 17 13 12 7 4 5 9 13 15 16 17 18 18 19 20
29 30 37 41 42 44 40 25 22 30 31 29 29 29 27 28 26 25 23 21 16 14 13 15 16 18 18 20 21 21 22 23 24
36 37 41 43 44 48 50 45 33 28 35 34 34 32 33 35 33 31 28 22 21 21 19 21 21 23 25 25 27 27 27 27 26
30 32 37 39 39 47 48 49 54 55 42 47 45 39 35 40 38 39 39 28 25 24 23 24 26 29 29 29 28 30 32 27 28
42 43 44 44 44 50 54 57 61 49 47 50 63 53 46 43 45 41 38 32 29 23 25 25 27 30 32 33 32 27 29 29 28
49 50 52 55 57 59 58 50 47 49 42 40 54 60 81 38 46 43 39 32 25 21 23 25 24 25 27 29 26 26 27 27 26
50 50 51 52 55 50 49 48 49 55 60 50 49 25 5 46 46 40 39 27 24 26 25 24 21 21 24 21 22 23 26 26 26
44 45 45 45 43 44 46 47 50 54 55 56 46 25 18 37 40 38 32 19 21 23 25 25 25 27 28 27 26 27 28 27 27
42 41 42 39 39 42 46 43 42 43 46 49 41 25 24 12 10 12 12 19 22 18 19 24 28 28 28 27 28 30 30 29 30
35 38 36 32 29 28 30 30 34 40 36 40 37 27 15 13 14 16 17 19 18 19 21 24 26 27 27 28 29 30 30 30 31
39 30 30 24 23 27 28 28 29 28 27 21 18 12 11 19 17 15 13 14 21 23 25 27 27 29 30 30 31 32 31 31 32
31 30 29 31 30 29 30 29 28 26 17 7 13 5 14 15 10 16 19 23 26 26 26 29 30 29 28 30 31 31 32 32 32
Wind_Direction
42 25 19 5 3 9 4 13 15 4 8 21 152 250 253 253 255 253 250 259 256 238 235 242 231 246 251 248 243 242 258 292 319
31 13 14 13 339 357 3 5 5 5 16 39 55 242 235 243 251 181 171 213 195 205 230 246 249 247 248 253 256 260 267 273 277
25 9 22 11 355 336 342 348 356 354 11 45 64 93 124 150 177 203 216 213 225 237 240 251 264 271 266 264 263 265 266 270 271
15 6 13 14 4 342 330 331 339 345 344 53 78 107 157 192 201 225 243 255 256 256 253 246 243 239 248 257 261 268 277 282 287
338 319 337 352 358 353 331 328 323 333 328 250 185 181 203 218 213 227 260 276 277 275 276 279 272 265 249 240 247 259 276 298 300
324 339 310 335 340 335 323 315 323 319 300 274 253 242 234 234 238 255 278 283 282 281 279 278 277 276 272 276 280 282 286 291 296
319 316 322 332 344 332 348 332 305 304 296 296 298 294 279 264 256 279 292 289 277 274 275 270 267 274 277 278 281 282 287 289 290
303 316 326 328 329 300 324 315 305 291 290 293 289 290 287 281 267 271 291 289 293 290 285 280 272 274 278 278 277 278 284 284 283
314 319 315 316 314 309 321 318 279 278 276 283 287 282 285 283 270 267 276 287 301 325 341 308 280 273 272 274 277 279 280 277 274
299 299 302 307 308 313 314 314 297 277 275 267 273 276 274 272 274 277 270 281 293 297 300 298 289 279 277 276 276 276 278 278 280
298 299 301 303 303 301 301 298 287 275 254 253 253 262 266 269 269 270 260 275 281 281 289 289 285 279 276 277 280 280 279 280 284
279 287 294 300 302 296 296 294 292 292 274 256 240 231 244 256 257 262 256 261 271 266 274 279 288 279 282 280 281 281 283 286 284
276 280 284 288 290 290 292 293 293 276 270 261 249 249 203 234 240 248 257 259 254 263 272 280 286 282 275 277 282 278 278 285 289
270 274 277 279 282 286 289 293 297 285 254 312 311 282 264 202 224 232 240 241 259 260 268 282 289 287 281 280 272 278 280 283 285
277 278 280 282 284 288 287 288 290 292 297 309 308 328 106 192 215 220 230 237 252 254 265 278 287 284 287 283 279 281 282 281 280
288 288 289 288 287 288 289 290 293 295 300 303 308 312 325 216 217 225 226 238 257 264 270 278 280 283 279 279 279 274 274 275 274
294 290 294 294 294 295 294 296 298 297 295 295 299 301 299 318 239 218 246 253 259 270 278 276 277 273 275 274 272 273 273 276 278
290 293 287 294 290 294 300 304 302 306 301 282 290 283 264 257 243 242 255 259 279 282 278 270 269 271 272 274 275 273 273 273 275
287 289 305 288 297 301 298 303 302 316 311 285 274 278 282 283 260 244 273 280 274 269 268 271 269 270 272 275 271 271 272 274 275
287 288 287 295 300 302 309 311 316 309 310 262 239 173 316 254 273 301 273 258 262 260 256 260 267 275 280 278 279 279 277 276 275